BLUE DIAMOND

Last updated on Fri Jul 21 2017 00:18:26 GMT+0000 (Coordinated Universal Time)

1 42786U 17036X 17200.85628921 .00001460 00000-0 69586-4 0 9994 2 42786 97.4483 260.3103 0013227 153.7122 206.4787 15.20643939 4061
UTC large
Height (km)
Speed (km/s)
/
Latitude / Longitude
Inclination (degrees)
Orbital Period (minutes)
Azimuth
Elevation
Range (km)
Doppler Factor

Next 0 passes for location: London (51.5072 / 0.1276)

Sorry there are no passes over London.